Location: Unspecified
(0.0000°N, 0.0000°E)
Time: 22:17:35
(UTC+00:00)

N. Korean satellite - Pass Details

Date: 08 December 2021
Orbit: 447 x 491 km, 97.3° (Epoch: 23 January)

Event Time Altitude Azimuth Distance (km) Brightness Sun altitude
Rises 04:40:38 0° 17° (NNE) 2,440 10.1 -16.4°
Reaches altitude 10° 04:42:40 10° 21° (NNE) 1,577 9.1 -15.9°
Maximum altitude 04:46:00 58° 101° (E) 536 7.1 -15.2°
Drops below altitude 10° 04:49:23 10° 181° (S) 1,607 9.5 -14.4°
Sets 04:51:28 0° 185° (S) 2,493 10.4 -13.9°
